TimeMST,TemperatureF,Dew PointF,Humidity,Sea Level PressureIn,VisibilityMPH,Wind Direction,Wind SpeedMPH,Gust SpeedMPH,PrecipitationIn,Events,Conditions,WindDirDegrees,DateUTC
12:56 AM,35.1,19.0,52,30.07,10.0,Variable,3.5,-,0.00,Rain,Light Rain,0,2012-11-19 07:56:00
1:56 AM,37.9,19.9,48,30.08,10.0,Calm,Calm,-,0.00,,Clear,0,2012-11-19 08:56:00
2:56 AM,30.9,19.0,61,30.14,10.0,NE,8.1,-,0.00,,Clear,50,2012-11-19 09:56:00
3:56 AM,33.1,16.0,50,30.13,10.0,NNE,9.2,-,0.00,,Clear,30,2012-11-19 10:56:00
4:56 AM,30.0,15.1,54,30.22,10.0,North,5.8,-,0.00,,Clear,360,2012-11-19 11:56:00
5:56 AM,30.9,16.0,54,30.23,10.0,NNE,4.6,-,0.00,,Clear,20,2012-11-19 12:56:00
6:56 AM,28.9,16.0,58,30.28,10.0,Calm,Calm,-,0.00,,Clear,0,2012-11-19 13:56:00
7:56 AM,41.0,19.9,43,30.25,10.0,Calm,Calm,-,0.00,,Clear,0,2012-11-19 14:56:00
8:56 AM,51.1,18.0,27,30.22,10.0,NNE,4.6,-,0.00,,Clear,30,2012-11-19 15:56:00
9:56 AM,53.1,17.1,24,30.23,10.0,Calm,Calm,-,N/A,,Clear,0,2012-11-19 16:56:00
10:56 AM,55.0,19.0,24,30.23,10.0,Variable,3.5,-,0.00,,Clear,0,2012-11-19 17:56:00
11:56 AM,55.9,17.1,22,30.22,10.0,Variable,6.9,-,N/A,,Clear,0,2012-11-19 18:56:00
12:56 PM,57.9,17.1,20,30.20,10.0,East,8.1,-,N/A,,Clear,90,2012-11-19 19:56:00
1:56 PM,57.0,19.0,23,30.18,10.0,SE,9.2,-,N/A,,Clear,130,2012-11-19 20:56:00
2:56 PM,55.9,18.0,23,30.22,10.0,North,-9999.0,-,N/A,,Clear,0,2012-11-19 21:56:00
3:56 PM,54.0,17.1,23,30.23,10.0,SSE,8.1,-,N/A,,Clear,160,2012-11-19 22:56:00
4:56 PM,46.0,19.0,34,30.29,10.0,South,9.2,-,N/A,,Clear,180,2012-11-19 23:56:00
5:56 PM,45.0,19.9,37,30.29,10.0,South,9.2,-,N/A,,Clear,170,2012-11-20 00:56:00
6:56 PM,39.0,19.9,46,30.34,10.0,SSE,9.2,-,N/A,,Clear,160,2012-11-20 01:56:00
7:56 PM,34.0,19.9,56,30.31,-9999.0,SSE,6.9,-,0.00,,Clear,160,2012-11-20 02:56:00
8:56 PM,32.0,19.9,61,30.27,-9999.0,SSW,6.9,-,0.00,,Clear,200,2012-11-20 03:56:00
9:56 PM,30.9,19.0,61,30.26,10.0,Calm,Calm,-,0.00,,Clear,0,2012-11-20 04:56:00
10:56 PM,28.9,19.0,67,30.27,10.0,Calm,Calm,-,0.00,,Clear,0,2012-11-20 05:56:00
11:56 PM,25.0,17.1,72,30.28,10.0,Calm,Calm,-,0.00,,Clear,0,2012-11-20 06:56:00